Location: Newark
(49.2191°N, 12.6671°E)
Time: 03:58:12
(UTC+00:00)

deb Explorer IX - All Passes

Search period start: 20 January 2020 00:00
Search period end: 30 January 2020 00:00
Orbit: 548 x 1101 km, 38.8° (Epoch: 19 January)

Date Brightness Start Highest point End Pass type
(mag) Time Alt. Az. Time Alt. Az. Time Alt. Az.
20 Jan - 01:14:14 10° WSW 01:20:31 34° S 01:26:14 10° ESE night (unlit)
20 Jan - 03:01:28 10° WSW 03:06:52 26° SSW 03:11:44 10° SSE visible
20 Jan - 04:52:03 10° SW 04:52:33 10° SW 04:53:04 10° SSW visible
20 Jan - 21:22:20 10° S 21:25:29 13° SE 21:28:38 10° ESE night (unlit)
20 Jan - 23:05:38 10° SW 23:11:35 28° SSE 23:17:19 10° ESE night (unlit)
21 Jan - 00:51:44 10° WSW 00:58:06 35° S 01:03:59 10° ESE night (unlit)
21 Jan - 02:38:57 10° WSW 02:44:29 26° SSW 02:49:30 10° SE visible
21 Jan - 04:29:05 10° SW 04:30:13 10° SW 04:31:20 10° SSW visible
21 Jan - 20:59:48 10° S 21:03:04 13° SE 21:06:20 10° ESE night (unlit)
21 Jan - 22:43:09 10° SW 22:49:09 28° SSE 22:54:59 10° ESE night (unlit)
22 Jan - 00:29:14 10° WSW 00:35:41 35° S 00:41:42 10° ESE night (unlit)
22 Jan - 02:16:27 10° WSW 02:22:06 26° SSW 02:27:16 10° SE visible
22 Jan - 04:06:20 10° SW 04:07:51 11° SW 04:09:21 10° SSW visible
22 Jan - 20:37:19 10° S 20:40:38 14° SE 20:43:57 10° ESE night (unlit)
22 Jan - 22:20:41 10° SW 22:26:42 29° SSE 22:32:38 10° ESE night (unlit)
23 Jan - 00:06:46 10° WSW 00:13:15 36° S 00:19:23 10° ESE night (unlit)
23 Jan - 01:53:56 10° WSW 01:59:41 27° SSW 02:05:00 10° SE night (unlit)
23 Jan - 03:43:40 10° SW 03:45:28 11° SW 03:47:15 10° SSW visible
23 Jan - 20:14:52 10° S 20:18:12 14° SE 20:21:33 10° ESE night (unlit)
23 Jan - 21:58:14 10° SW 22:04:15 29° SSE 22:10:15 10° ESE night (unlit)
23 Jan - 23:44:17 10° WSW 23:50:48 36° S 23:57:03 10° ESE night (unlit)
24 Jan - 01:31:26 10° WSW 01:37:16 27° SSW 01:42:42 10° SE night (unlit)
24 Jan - 03:21:02 10° SW 03:23:05 11° SW 03:25:04 10° SSW visible
24 Jan - 19:52:26 10° S 19:55:45 14° SE 19:59:07 10° ESE night (unlit)
24 Jan - 21:35:48 10° SW 21:41:47 29° SSE 21:47:50 10° ESE night (unlit)
24 Jan - 23:21:49 10° WSW 23:28:20 36° S 23:34:41 10° ESE night (unlit)
25 Jan - 01:08:55 10° WSW 01:14:49 27° SSW 01:20:22 10° SE night (unlit)
25 Jan - 02:58:26 10° WSW 03:00:40 12° SW 03:02:51 10° SSW night (unlit)
25 Jan - 19:30:01 10° S 19:33:17 14° SE 19:36:39 10° ESE visible
25 Jan - 21:13:22 10° SW 21:19:19 29° SSE 21:25:23 10° ESE night (unlit)
25 Jan - 22:59:21 10° WSW 23:05:52 36° S 23:12:16 10° ESE night (unlit)
26 Jan - 00:46:25 10° WSW 00:52:21 27° SSW 00:58:01 10° SE night (unlit)
26 Jan - 02:35:52 10° WSW 02:38:15 12° SW 02:40:34 10° SSW night (unlit)
26 Jan - 19:07:39 10° S 19:10:51 14° SE 19:14:08 10° ESE visible
26 Jan - 20:50:58 10° SW 20:56:50 29° SSE 21:02:56 10° ESE night (unlit)
26 Jan - 22:36:54 10° WSW 22:43:23 36° S 22:49:51 10° ESE night (unlit)
27 Jan - 00:23:56 10° WSW 00:29:53 28° SSW 00:35:38 10° SE night (unlit)
27 Jan - 02:13:19 10° WSW 02:15:48 12° SW 02:18:14 10° SSW night (unlit)
27 Jan - 18:45:18 10° S 18:48:23 14° SE 18:51:36 10° ESE visible
27 Jan - 20:28:34 10° SW 20:34:21 29° SSE 20:40:26 10° ESE visible
27 Jan - 22:14:28 10° WSW 22:20:53 36° S 22:27:24 10° ESE night (unlit)
28 Jan - 00:01:27 10° WSW 00:07:24 28° SSW 00:13:13 10° SE night (unlit)
28 Jan - 01:50:47 10° WSW 01:53:21 12° SW 01:55:51 10° SSW night (unlit)
28 Jan - 18:22:58 10° S 18:25:57 13° SE 18:29:02 10° ESE visible
28 Jan - 20:06:11 10° SW 20:11:53 29° SSE 20:17:55 10° ESE visible
28 Jan - 21:52:03 10° WSW 21:58:24 36° S 22:04:55 10° ESE night (unlit)
28 Jan - 23:38:59 10° WSW 23:44:55 27° SSW 23:50:46 10° SE night (unlit)
29 Jan - 01:28:18 10° WSW 01:30:53 12° SW 01:33:25 10° SSW night (unlit)
29 Jan - 18:00:40 10° S 18:03:30 13° SE 18:06:27 10° ESE visible
29 Jan - 19:43:49 10° SW 19:49:24 29° SSE 19:55:23 10° ESE visible
29 Jan - 21:29:38 10° WSW 21:35:54 36° S 21:42:25 10° ESE night (unlit)
29 Jan - 23:16:32 10° WSW 23:22:25 27° SSW 23:28:18 10° SE night (unlit)
